Погода в Шебалине

Россия / Алтайский край     52°42′57″N   85°47′32″E
темп.,
°C
ветер,
м/с
пор.,
м/с
влажн.,
%
обл.,
%
осадки,
мм/ч
давл.,
гПа
погр.,
м
17 сентября, пт
пт1701:00+11ю225857 0.0 101011
04:00+10ю116461 0.0 101011
07:00+9ююв22685 0.0 101015
10:00+17ююв454265 0.0 1009300
13:00+23ю5723100 0.0 10071304
16:00+26ююз581795 0.0 10042927
19:00+20ююв4830100 0.0 1003114
22:00+16юв51340100 0.0 1002197
18 сентября, сб
сб1801:00+18ююв71834100 0.0 999391
04:00+19з81331100 0.0 1001944
07:00+11зюз61294100 2.7 1007703
10:00+12зюз587340 0.4 1010981
13:00+16зюз57443 0.4 10101419
16:00+17зюз583615 0.0 10101698
19:00+14зюз22485 0.0 101026
22:00+10ю227157 0.0 101119
19 сентября, вс
вс1901:00+8юз229010 0.0 101110
04:00+8ююз2289100 0.0 101120
07:00+6ююз22805 0.0 101130
10:00+13юз2360100 0.0 1010286
13:00+18юз3535100 0.0 10081490
16:00+19з2331100 0.0 10051514
19:00+15всв2240100 0.0 100422
22:00+13ююв495549 0.0 1003198
20 сентября, пн
пн2001:00+7з71289100 0.5 10091100
04:00+5зюз512873 0.4 1012564
07:00+3ююз3994100 0.4 1014293
10:00+6зюз71272100 0.5 10151566
13:00+8зюз71258100 0.8 10161771
16:00+9зюз91243100 0.2 10162003
19:00+7з5957100 0.2 10171161
22:00+6зюз4857100 0.0 10181195
21 сентября, вт
вт2101:00+3зюз5888100 0.1 1020644
04:00+3зюз388393 0.2 1020357
07:00+1юз3794100 0.2 1021165
10:00+4зюз5778100 0.0 1021742
13:00+4зсз589399 0.7 1021458
16:00+6з686298 0.2 10211422
19:00+4зсз476791 0.2 1022746
22:000з228413 0.0 102333